Location: Holyhead Bay
(53.3667°N, 4.6667°W)
Time: 00:50:38
(UTC+00:00)

IRIDIUM 33 DEB - Pass Details

Date: 01 October 2021
Orbit: 583 x 600 km, 86.4° (Epoch: 15 October)

Event Time Altitude Azimuth Distance (km) Brightness Sun altitude
Rises 02:58:49 0° 5° (N) 2,848 ? -28.9°
Reaches altitude 10° 03:01:37 10° 24° (NNE) 1,937 ? -28.6°
Maximum altitude 03:04:38 19° 70° (ENE) 1,445 ? -28.3°
Drops below altitude 10° 03:07:39 10° 115° (ESE) 1,918 ? -27.9°
Sets 03:10:23 0° 134° (SE) 2,810 ? -27.6°
